Wind_Speed
29 28 27 26 26 26 25 24 24 24 23 23 23 23 23 23 24 24 24 24 24 23 24 24 24 23 23 23 23 23 23 23 23 22 22 22 22 22 22 22 22 22 22
31 30 29 28 28 27 27 26 26 25 25 25 25 25 25 25 25 25 25 25 25 25 25 25 25 24 24 25 25 25 25 25 25 24 24 25 24 24 24 24 25 25 24
32 32 31 30 30 29 28 28 28 28 27 26 26 26 26 26 26 26 26 26 26 26 26 26 26 25 26 26 26 26 27 27 26 26 26 26 26 26 26 26 26 26 26
33 33 32 32 31 30 30 30 30 29 29 28 28 28 27 27 27 27 27 27 27 27 27 27 28 28 27 27 27 27 27 27 27 28 27 27 27 27 27 27 28 28 27
35 34 34 33 32 32 32 31 31 31 31 30 30 29 29 29 29 28 28 28 28 29 29 29 28 28 29 29 29 29 29 29 29 29 28 28 29 28 29 29 30 30 29
37 35 35 34 33 33 33 32 32 32 32 32 32 31 30 29 29 29 29 29 29 29 29 29 29 29 30 30 30 30 30 30 30 30 30 30 30 30 31 31 31 31 31
39 38 37 36 35 34 34 33 33 33 33 33 33 32 32 31 31 31 31 31 31 31 30 30 30 30 31 31 31 31 31 31 32 32 32 32 32 32 32 32 33 33 33
41 40 39 38 37 36 36 36 35 34 34 34 34 33 33 32 32 32 32 32 32 32 32 32 33 33 33 32 32 32 32 32 33 33 33 33 33 34 34 34 34 35 35
43 42 41 41 40 38 37 37 37 36 35 35 35 35 34 34 33 34 33 33 34 34 34 34 34 34 34 33 33 33 33 33 34 34 34 34 35 35 35 35 36 36 36
44 44 43 42 42 40 39 39 39 38 37 36 36 36 36 36 35 35 35 35 35 36 36 36 36 36 35 35 35 35 34 35 35 35 34 35 35 36 36 35 36 37 38
45 45 44 43 43 42 41 40 40 40 39 38 37 37 37 37 37 37 36 36 36 37 36 37 37 37 36 37 37 37 36 36 36 36 36 36 37 37 36 37 37 38 39
46 45 45 44 44 44 43 41 42 41 41 40 40 39 39 39 39 39 38 38 38 37 37 37 37 37 37 37 37 38 38 38 37 37 37 38 38 38 38 38 39 39 40
47 47 46 46 45 45 44 43 42 43 42 42 42 42 41 41 41 40 40 40 40 39 38 38 38 38 38 38 37 38 38 38 39 39 39 39 39 40 39 39 40 40 41
48 48 48 47 46 45 45 44 43 44 44 43 43 43 42 42 41 42 42 41 41 40 40 39 40 39 39 39 38 38 38 39 39 40 40 40 41 41 42 42 42 43 43
48 48 47 47 47 46 45 45 45 44 44 43 43 43 43 43 42 43 42 42 41 41 40 40 40 41 40 40 40 40 40 40 40 40 41 41 42 42 43 44 44 44 44
49 49 49 48 47 47 46 46 46 46 45 45 44 44 44 44 43 43 43 43 43 42 41 40 41 41 42 42 41 41 41 41 41 42 42 43 43 44 44 45 45 45 45
50 50 50 49 49 48 48 47 47 46 46 46 46 45 44 45 45 43 43 44 44 44 43 42 41 41 42 42 42 42 42 42 42 43 43 44 45 45 46 46 46 46 46
51 51 50 50 50 49 50 49 49 48 47 47 46 46 45 46 45 44 44 44 43 43 43 42 42 42 42 42 42 42 43 44 44 44 45 46 46 47 47 47 47 47 47
51 51 51 51 50 49 49 49 49 49 48 47 46 46 46 46 46 45 44 43 43 43 43 43 43 43 43 43 44 43 44 45 45 46 46 47 47 48 48 48 48 48 49
51 51 50 50 49 49 49 49 49 48 48 48 47 46 46 46 45 45 45 44 43 43 44 44 44 44 44 44 44 44 45 45 46 47 47 47 48 48 49 48 49 49 49
51 50 50 49 49 49 49 49 49 48 48 47 47 47 47 47 46 45 45 45 44 44 43 44 44 44 44 44 44 44 45 46 46 46 47 47 47 48 48 49 49 49 48
50 50 50 50 50 50 49 49 49 48 48 47 47 47 46 46 46 45 44 45 45 44 44 44 44 44 44 44 44 45 45 46 46 46 47 47 48 48 48 48 49 48 47
51 51 51 52 51 51 50 50 49 49 48 48 48 47 46 46 46 46 45 46 46 46 46 46 46 45 45 45 45 46 46 47 48 48 48 48 48 47 48 48 48 47 47
50 51 51 51 52 52 51 51 50 49 49 49 49 48 47 47 46 47 47 46 46 46 46 46 46 46 45 45 46 47 48 48 49 48 48 48 48 48 48 47 47 47 48
49 50 50 51 51 51 51 51 50 50 50 50 50 49 49 48 48 48 47 46 46 46 46 46 46 46 46 46 46 47 47 47 47 47 47 47 47 47 47 47 47 47 47
47 48 48 49 49 50 51 51 51 50 50 50 50 49 49 49 48 48 48 47 46 46 46 46 47 46 46 46 47 47 47 47 46 46 46 47 46 46 46 46 46 46 46
Wind_Direction
242 244 245 246 247 249 250 251 253 254 255 255 257 259 260 262 263 263 264 264 265 267 268 269 270 271 272 273 274 275 277 278 278 278 280 281 283 284 285 286 288 290 291
243 245 246 247 248 249 251 251 253 254 255 256 258 260 261 263 263 263 264 265 265 266 267 268 269 270 271 273 275 274 275 277 277 277 277 279 280 280 283 286 287 289 289
243 244 247 248 249 249 251 252 253 254 255 257 259 260 262 263 264 264 264 265 265 266 266 267 268 270 272 274 275 276 275 276 277 277 277 277 278 280 282 284 286 288 287
243 244 246 248 249 250 251 252 253 255 255 258 260 260 261 262 264 264 265 265 265 265 266 267 268 270 271 273 274 275 276 276 276 277 277 278 279 280 281 282 284 287 286
243 244 246 248 249 250 251 252 253 254 256 258 259 261 261 262 264 264 265 265 266 266 266 267 268 270 271 272 273 273 275 275 276 278 278 278 280 280 281 281 283 284 285
244 245 246 246 248 250 252 252 254 255 256 258 259 260 260 262 263 264 265 267 267 267 267 267 268 270 271 273 274 274 275 274 275 277 277 278 279 280 280 281 282 283 284
245 245 246 247 248 250 252 254 255 256 257 258 259 259 260 262 263 264 266 267 268 267 267 268 269 270 272 273 274 274 274 274 274 275 277 278 279 280 280 280 281 283 284
246 246 247 248 249 251 253 254 254 256 257 258 259 259 259 261 263 264 266 267 267 266 267 268 270 272 273 273 273 274 274 274 275 276 277 278 280 281 281 281 282 283 284
246 246 247 249 250 251 253 255 254 256 257 258 258 259 260 260 262 264 265 267 267 267 268 269 271 272 272 273 273 273 274 273 274 275 276 278 280 281 281 282 283 284 284
245 246 247 248 250 251 254 255 254 255 256 257 258 259 260 262 263 264 264 265 266 267 269 269 270 271 272 273 272 273 274 274 275 275 276 278 280 280 282 283 284 284 285
245 246 247 248 250 251 253 253 254 254 256 257 258 259 260 262 263 264 265 265 266 267 269 270 271 271 272 272 272 273 273 274 276 277 278 279 280 281 282 283 284 285 285
245 246 247 248 250 251 252 252 253 254 255 257 258 259 260 262 264 265 267 266 266 266 267 269 270 271 272 272 272 272 273 273 274 276 277 279 280 281 283 284 284 286 286
245 246 247 248 249 250 251 253 253 254 255 256 257 259 261 262 264 265 266 266 266 267 268 269 270 270 271 272 273 273 273 274 274 275 277 278 279 281 283 284 285 286 286
246 246 247 247 248 249 251 252 253 254 255 257 258 259 260 262 263 263 264 265 266 267 267 268 269 270 270 272 272 273 273 274 274 275 277 278 279 281 282 283 285 286 287
246 247 247 248 248 249 251 252 254 255 256 257 259 260 260 262 263 262 263 264 266 267 268 268 269 269 270 271 272 272 273 274 275 276 277 278 280 281 282 283 284 285 286
246 246 247 248 249 250 251 252 253 254 255 256 258 259 260 261 263 263 263 264 265 266 267 268 268 269 270 270 271 272 274 275 276 276 277 278 280 281 282 283 284 285 286
246 246 247 249 250 251 251 252 253 255 256 257 258 260 261 261 263 263 264 264 265 266 266 267 268 269 270 271 272 274 274 276 277 278 278 279 280 281 283 283 284 284 285
246 246 248 248 249 251 251 252 253 254 256 257 257 259 261 261 262 262 264 264 264 265 266 267 268 269 270 272 273 274 275 276 277 279 280 280 281 281 282 283 283 284 285
246 247 248 248 249 251 251 252 253 254 256 256 257 258 259 261 262 262 263 264 265 265 266 266 267 268 270 271 272 274 275 276 278 279 280 281 282 281 282 282 283 284 285
247 247 248 249 249 250 251 252 253 254 255 256 257 258 259 260 262 263 263 264 265 265 266 267 268 269 269 271 272 274 275 276 278 279 281 281 282 282 282 282 283 284 284
247 248 248 248 249 250 251 252 253 254 254 255 256 257 259 260 261 262 263 264 264 265 266 267 268 269 270 271 272 274 275 277 278 280 281 282 283 283 283 283 283 283 283
248 249 249 249 249 250 251 252 253 253 253 253 255 257 258 260 261 261 262 263 264 265 266 267 268 270 271 271 273 274 275 277 279 281 282 283 284 283 283 283 283 282 282
248 249 250 250 250 250 251 252 252 253 253 254 255 256 257 258 260 261 262 263 264 265 266 267 268 270 271 271 273 274 276 277 279 280 282 283 283 283 282 283 282 281 281
249 250 250 251 251 251 251 252 252 253 254 255 256 256 257 258 260 262 262 263 264 265 266 267 269 270 270 272 273 274 275 277 279 280 281 282 282 282 282 282 281 280 281
250 251 251 252 252 251 252 252 253 254 254 255 256 256 257 258 259 261 262 263 264 265 266 268 269 270 271 272 273 275 276 278 280 281 281 281 282 282 282 281 281 281 281
251 252 252 252 252 252 252 252 253 253 254 255 256 256 256 257 258 260 261 262 263 264 266 268 268 269 270 271 273 275 277 279 280 280 280 281 282 282 282 282 282 282 281
Height
5822 5823 5825 5827 5828 5830 5831 5832 5833 5834 5835 5836 5836 5837 5838 5838 5838 5839 5839 5839 5839 5839 5839 5839 5839 5838 5838 5838 5837 5837 5836 5835 5835 5834 5833 5833 5832 5831 5831 5830 5829 5828 5827
5816 5818 5819 5821 5823 5824 5826 5827 5828 5829 5830 5831 5831 5832 5832 5833 5833 5833 5833 5834 5834 5834 5834 5833 5833 5833 5833 5832 5832 5831 5831 5830 5829 5829 5828 5827 5827 5826 5825 5825 5824 5823 5822
5809 5811 5813 5815 5817 5818 5820 5821 5822 5823 5824 5825 5826 5826 5827 5827 5828 5828 5828 5828 5828 5828 5828 5828 5828 5828 5828 5827 5826 5825 5825 5824 5823 5823 5822 5822 5821 5821 5820 5819 5818 5817 5816
5803 5805 5807 5809 5810 5812 5814 5815 5816 5817 5818 5819 5820 5821 5821 5821 5822 5822 5822 5822 5822 5822 5822 5822 5822 5822 5822 5821 5820 5820 5819 5818 5818 5817 5816 5816 5815 5814 5814 5813 5812 5811 5810
5795 5798 5800 5802 5804 5805 5807 5808 5810 5811 5812 5813 5814 5815 5815 5815 5816 5816 5816 5816 5816 5816 5816 5816 5816 5816 5815 5815 5814 5813 5813 5812 5812 5811 5810 5810 5809 5808 5807 5806 5806 5805 5804
5788 5790 5793 5795 5797 5798 5800 5801 5803 5804 5805 5806 5807 5808 5809 5809 5809 5809 5810 5810 5810 5809 5809 5809 5809 5809 5808 5808 5807 5807 5806 5806 5805 5804 5804 5803 5802 5801 5801 5800 5799 5798 5797
5780 5782 5785 5787 5789 5791 5793 5794 5795 5797 5798 5799 5800 5801 5802 5802 5803 5803 5803 5803 5803 5803 5803 5802 5802 5802 5801 5801 5800 5800 5799 5799 5798 5797 5797 5796 5795 5794 5793 5792 5791 5790 5789
5771 5774 5777 5779 5781 5783 5785 5787 5788 5789 5790 5791 5792 5793 5794 5795 5795 5796 5796 5796 5796 5796 5795 5795 5794 5794 5794 5793 5793 5792 5792 5791 5791 5790 5789 5788 5788 5787 5785 5784 5783 5782 5781
5762 5765 5768 5770 5772 5775 5776 5778 5780 5781 5782 5783 5784 5785 5786 5787 5788 5788 5788 5788 5788 5788 5788 5787 5787 5786 5786 5785 5785 5785 5784 5783 5783 5782 5781 5780 5779 5778 5777 5776 5775 5774 5773
5752 5755 5758 5761 5763 5765 5767 5769 5771 5772 5774 5775 5776 5777 5778 5778 5779 5780 5781 5780 5780 5780 5779 5779 5778 5778 5777 5777 5777 5776 5776 5775 5774 5774 5773 5772 5771 5770 5769 5768 5766 5765 5764
5742 5745 5748 5751 5753 5756 5758 5760 5761 5763 5765 5766 5767 5768 5768 5769 5769 5770 5771 5772 5771 5771 5770 5770 5769 5769 5768 5768 5768 5767 5767 5767 5766 5765 5764 5763 5762 5761 5760 5759 5757 5756 5754
5731 5735 5738 5740 5743 5746 5748 5750 5752 5753 5755 5757 5758 5759 5759 5760 5761 5761 5761 5761 5762 5762 5761 5761 5760 5760 5759 5759 5758 5758 5758 5757 5757 5756 5755 5755 5753 5752 5751 5750 5748 5747 5745
5721 5724 5727 5730 5732 5735 5738 5739 5742 5744 5745 5746 5748 5749 5750 5751 5751 5751 5751 5751 5751 5752 5752 5752 5751 5751 5750 5749 5749 5748 5748 5748 5747 5747 5746 5745 5744 5743 5742 5740 5738 5736 5735
5710 5713 5716 5719 5722 5724 5727 5729 5731 5733 5735 5736 5737 5738 5739 5740 5740 5741 5741 5741 5741 5742 5742 5742 5742 5741 5740 5740 5739 5738 5738 5738 5737 5737 5736 5736 5735 5733 5732 5730 5728 5726 5724
5698 5701 5704 5708 5710 5713 5716 5718 5720 5722 5724 5726 5726 5727 5729 5730 5730 5730 5731 5731 5731 5732 5733 5733 5732 5731 5730 5730 5729 5729 5729 5728 5727 5727 5726 5725 5724 5723 5721 5720 5718 5716 5714
5686 5690 5693 5696 5699 5702 5704 5707 5709 5711 5713 5714 5715 5717 5718 5719 5719 5720 5720 5720 5721 5721 5722 5722 5722 5721 5721 5720 5720 5719 5719 5718 5717 5716 5715 5714 5713 5712 5710 5708 5706 5704 5702
5674 5678 5681 5684 5688 5690 5693 5695 5697 5699 5701 5703 5704 5705 5707 5707 5708 5709 5709 5709 5710 5710 5711 5711 5711 5711 5710 5710 5710 5709 5708 5707 5706 5705 5704 5703 5702 5700 5698 5696 5694 5693 5690
5662 5665 5669 5672 5675 5678 5681 5683 5685 5687 5689 5691 5693 5694 5695 5696 5697 5698 5699 5699 5699 5699 5700 5700 5700 5700 5700 5700 5699 5699 5698 5697 5696 5694 5693 5691 5690 5688 5686 5684 5682 5680 5678
5649 5653 5656 5660 5663 5666 5668 5670 5673 5675 5677 5679 5681 5682 5684 5685 5686 5687 5687 5688 5688 5688 5689 5689 5690 5689 5689 5689 5688 5688 5686 5685 5684 5683 5681 5679 5677 5675 5673 5671 5669 5668 5666
5637 5640 5644 5647 5650 5653 5655 5658 5660 5662 5665 5667 5669 5671 5672 5673 5674 5675 5676 5676 5677 5677 5677 5678 5678 5678 5678 5677 5677 5676 5675 5674 5673 5671 5669 5667 5665 5663 5661 5659 5657 5655 5653
5624 5627 5631 5634 5637 5640 5643 5645 5648 5650 5652 5654 5656 5658 5660 5661 5662 5663 5664 5665 5665 5666 5666 5667 5667 5667 5667 5666 5666 5665 5664 5662 5661 5659 5657 5655 5653 5650 5648 5646 5643 5641 5639
5611 5614 5618 5621 5624 5627 5630 5632 5634 5637 5640 5642 5644 5646 5648 5649 5650 5651 5652 5653 5654 5655 5655 5655 5656 5656 5656 5655 5654 5653 5652 5651 5650 5648 5645 5643 5640 5637 5635 5633 5630 5628 5626
5597 5601 5604 5608 5611 5614 5617 5619 5621 5624 5627 5629 5632 5634 5635 5637 5638 5639 5640 5641 5642 5643 5644 5644 5644 5644 5644 5644 5642 5641 5640 5638 5637 5635 5633 5630 5627 5624 5622 5619 5617 5615 5614
5584 5587 5590 5594 5597 5600 5603 5606 5608 5611 5614 5617 5619 5621 5623 5625 5626 5627 5628 5629 5630 5631 5632 5632 5632 5632 5631 5630 5629 5628 5627 5625 5624 5622 5620 5618 5615 5612 5609 5607 5605 5603 5601
5571 5574 5577 5580 5583 5586 5589 5592 5595 5598 5601 5603 5606 5608 5610 5612 5614 5615 5616 5617 5618 5619 5619 5619 5619 5619 5619 5618 5617 5615 5614 5613 5612 5610 5607 5605 5603 5600 5597 5594 5592 5590 5588
5558 5561 5564 5566 5569 5573 5576 5578 5581 5584 5587 5590 5593 5595 5597 5599 5601 5601 5603 5605 5606 5607 5607 5607 5607 5607 5606 5605 5604 5603 5602 5601 5599 5597 5595 5592 5589 5586 5584 5582 5579 5577 5575